Flag for Brazil Weather past 2 weeks in Salvador, Bahia, Brazil

Now
82 °F

Scattered clouds.


Feels Like: 86 °F
Forecast: 77 / 82 °F
Wind: 9 mph from Southeast

Location: Salvador Aeroporto

Current Time: May 28, 2015 at 3:52:47 PM

Latest Report: May 28, 2015 at 3:00 PM


Visibility: N/A

Pressure: 29.92 "Hg

Humidity: 66%

Dew point: 70 °F

Location of SalvadorLocation

Historic Weather in Salvador — Graph

°F

Salvador temperature yesterday

Maximum temperature yesterday: 84 °F (at 9:00 AM)
Minimum temperature yesterday: 77 °F (at 1:00 AM)
Average temperature yesterday: 80 °F

Past Weeks' High & Low Weather Summary

 TemperatureHumidityPressure
High86 °F (May 14, 11:00 AM)100% (May 15, 3:00 AM)30.09 "Hg (May 15, 3:00 AM)
Low37 °F (May 15, 5:00 AM)55% (May 23, 11:00 AM)29.92 "Hg (May 13, 3:00 PM)
Average78 °F75%30.01 "Hg
* Reported May 13 3:00 PM — May 28 3:00 PM, Salvador, Weather by CustomWeather, © 2015

Note: Actual official high and low records may vary slightly from our data, if they occured in-between our weather recording intervals... More about our weather records

Advertising

Salvador weather history for previous 24 hours

 ConditionsComfort  
Time TempWeatherWind HumidityBarometerVisibility
3:00 PM
Thu, May 28
82 °FScattered clouds.9 mph66%29.92 "HgN/A
2:00 PM82 °FScattered clouds.9 mph66%29.92 "HgN/A
1:00 PM84 °FPassing clouds.10 mph66%29.95 "HgN/A
12:00 PM82 °FScattered clouds.9 mph66%29.98 "HgN/A
11:00 AM82 °FScattered clouds.12 mph66%30.01 "HgN/A
10:00 AM82 °FScattered clouds.8 mph66%30.04 "HgN/A
9:00 AM82 °FPassing clouds.7 mph66%30.04 "HgN/A
8:00 AM79 °FScattered clouds.6 mph74%30.04 "HgN/A
7:00 AM79 °FScattered clouds.5 mph74%30.01 "HgN/A
6:00 AM79 °FScattered clouds.8 mph74%29.98 "HgN/A
5:00 AM77 °FPassing clouds.7 mph79%29.98 "HgN/A
4:00 AM79 °FPassing clouds.8 mph74%29.98 "HgN/A
3:00 AM79 °FPassing clouds.7 mph74%29.98 "HgN/A
2:00 AM79 °FPassing clouds.7 mph70%29.98 "HgN/A
1:00 AM79 °FPassing clouds.5 mph74%29.98 "HgN/A
12:00 AM79 °FPassing clouds.8 mph74%30.01 "HgN/A
11:00 PM
Wed, May 27
79 °FPassing clouds.6 mph74%30.01 "HgN/A
10:00 PM79 °FClear.6 mph74%30.01 "Hg10 mi
9:00 PM79 °FClear.6 mph70%30.01 "Hg10 mi
8:00 PM79 °FClear.8 mph74%30.01 "Hg10 mi
7:00 PM79 °FPassing clouds.6 mph74%29.98 "HgN/A
6:00 PM81 °FPassing clouds.7 mph66%29.98 "HgN/A
5:00 PM81 °FPassing clouds.8 mph66%29.98 "HgN/A
4:00 PM82 °FPassing clouds.9 mph62%29.98 "HgN/A
3:00 PM84 °FPassing clouds.9 mph58%29.98 "HgN/A
Weather by CustomWeather, © 2015

See weather overviewHow to use our weather pages